Point Hope, AK

3:09 PM AKDT on April 23, 2018 (GMT -0800)
Point Hope | | Change Station

Elev 13 ft 68.35 °N, 166.80 °W | Updated 13 minutes ago

Clear
Clear
27 °F
Feels Like 20 °F
N
7
Wind Variable Wind from ENE

Today
High -- | Low -- °F
--% Chance of Precip.
Yesterday
High -- | Low -- °F
Precip. -- in
Pressure 29.67 in
Visibility 10.0 miles
Clouds Clear
Windchill 20 °F
Dew Point 16 °F
Humidity 63%
Rainfall 0.00 in
Snow Depth Not available.
6:36 AM 11:37 PM
Waxing Gibbous, 62% visible
METAR PAPO 232256Z AUTO 06006KT 10SM CLR M03/M09 A2967 RMK AO2 SLP046 T10281089 FZRANO
Pressure 29.67 in
Visibility 10.0 miles
Clouds Clear
Windchill 20 °F
Dew Point 16 °F
Humidity 63%
Rainfall 0.00 in
Snow Depth Not available.
6:36 AM 11:37 PM
Waxing Gibbous, 62% visible
METAR PAPO 232256Z AUTO 06006KT 10SM CLR M03/M09 A2967 RMK AO2 SLP046 T10281089 FZRANO

Get Severe Weather Alerts

Thanks for signing up!

Be on the lookout for a verification email in your inbox.

You'll start receiving the daily forecast at 6 AM.

×

10-Day Weather Forecast

Almanac

Astronomy

Apr. 23, 2018 Rise Set
Actual Time
Civil Twilight
Nautical Twilight
Astronomical Twilight
Moon
Length of Visible Light
Length of Day
Tomorrow will be .
, % of the Moon is Illuminated

Today's Extremes

State Highs State Lows

Community

WunderPhotos

Category 6

Welcome to Category 6. This is the collective home for Weather Underground's featured writeups by Dr. Jeff Masters (right), Bob Henson (left), Chris Burt, and other regular contributors.

Nearby

Air Quality

  Air Quality AQ Index Pollutant
Not available.

Snow Depth

Station Depth Elevation

Earthquake Activity

City Distance Mag. Time & Date
Minimum magnitude displayed is 2.5.

Coastal Water Temperatures

Place Temperature

Stations

Nearby Weather Stations

Station Location Temp. Windchill Dew Point Humidity Wind Precip. Elev Updated Type
                   

Watches & Warnings

There are currently no watches in effect.